www.pogodaiklimat.ru

Погода и климат >> Архив погоды >> Испания >> Толедо


ПОГОДА в Толедо

  • Прогноз погоды в Толедо
  • Монитор погоды в Толедо

АРХИВ ПОГОДЫ в Толедо

Время (UTC), дата Ветер
(напр.,м/с)
 
Видим.   Явления Облачность Т
(С)
Тd
(С)
f
(%)
Тe
(С)
Тes
(С)
Комфортность P
(гПа)
Po
(гПа)
Тmin
(С)
Tmax
(С)
R
(мм)
R24
(мм)
S
(см)
13 10.09 С 8 20 км н/о +22.8 +0.6 23 +22 +22 комфорт 1014.2 956.0
14 10.09 С 9 20 км н/о +22.6 +1.0 24 +22 +22 комфорт 1014.1 955.9
15 10.09 С 8 20 км н/о +22.6 +1.6 25 +22 +22 комфорт 1013.9 955.7
16 10.09 С 9 20 км н/о +23.2 +2.1 25 +23 +23 комфорт 1013.9 955.8
17 10.09 С 8 20 км н/о +21.9 +2.6 28 +22 +22 комфорт 1015.0 956.6
18 10.09 С 7 20 км н/о +20.4 +2.7 31 +20 +20 1015.7 957.0 +23.8
19 10.09 СВ 4 20 км н/о +18.8 +4.2 38 +19 +19 1016.9 957.8
20 10.09 С 6 20 км н/о +17.7 +5.0 43 +17 +17 1018.0 958.7
21 10.09 С 6 20 км н/о +16.9 +5.5 47 +16 +16 1018.7 959.2
22 10.09 С 3 20 км н/о +15.9 +5.2 49 +16 +16 1019.2 959.4
23 10.09 С 4 20 км н/о +14.4 +5.2 54 +13 +13 1019.9 959.8
00 11.09 С 3 20 км н/о +13.8 +5.2 56 +13 +13 1020.0 959.8
01 11.09 С 4 20 км н/о +13.3 +5.0 57 +12 +12 1020.1 959.8
02 11.09 С 4 20 км н/о +13.2 +5.1 58 +12 +12 1020.0 959.6
03 11.09 С 4 20 км н/о +12.7 +5.1 60 +11 +11 1019.7 959.3
04 11.09 С 3 20 км н/о +12.9 +5.3 60 +12 +12 1020.2 959.8
05 11.09 С 3 20 км н/о +12.6 +5.7 63 +12 +12 1020.7 960.2
06 11.09 С 3 20 км н/о +12.4 +6.0 65 +11 +11 1020.7 960.2 +12.4
07 11.09 С 2 20 км н/о +13.9 +6.7 62 +14 +14 1021.2 960.9
08 11.09 СЗ 3 20 км н/о +17.0 +7.1 52 +17 +17 1020.8 961.2
09 11.09 С 5 20 км н/о +19.6 +7.0 44 +20 +20 1020.5 961.4
10 11.09 СВ 6 20 км н/о +22.0 +6.2 36 +23 +23 комфорт 1020.2 961.6
11 11.09 СВ 7 20 км н/о +23.9 +6.6 33 +24 +24 комфорт 1019.4 961.2
12 11.09 СВ 6 20 км н/о +25.4 +6.1 29 +25 +25 комфорт 1018.7 960.8
13 11.09 СВ 6 20 км н/о +27.0 +6.4 27 +26 +26 жарко 1017.7 960.2
14 11.09 В 8 20 км н/о +26.7 +6.1 27 +26 +26 жарко 1017.7 960.1
15 11.09 В 7 20 км н/о +27.6 +5.8 25 +27 +27 жарко 1017.5 960.1
16 11.09 В 7 20 км н/о +26.6 +6.1 27 +26 +26 жарко 1017.7 960.1
17 11.09 В 8 20 км н/о +26.2 +5.7 27 +26 +26 жарко 1018.1 960.4
18 11.09 В 8 20 км н/о +25.1 +5.8 29 +25 +25 комфорт 1019.3 961.3 +27.7
19 11.09 В 6 20 км н/о +23.8 +5.6 31 +24 +24 комфорт 1020.5 962.2
20 11.09 В 6 20 км н/о +22.9 +5.8 33 +23 +23 комфорт 1021.6 963.1
21 11.09 В 4 20 км н/о +21.7 +6.4 37 +22 +22 комфорт 1022.5 963.7
22 11.09 В 4 20 км н/о +19.6 +9.5 52 +21 +21 комфорт 1023.3 964.1
23 11.09 В 2 20 км н/о +18.2 +9.5 57 +19 +19 1023.7 964.2
00 12.09 В 3 20 км н/о +17.2 +9.6 61 +17 +17 1024.4 964.7
01 12.09 В 2 20 км н/о +16.9 +7.8 55 +17 +17 1024.9 965.0
02 12.09 В 3 20 км н/о +16.9 +7.3 53 +17 +17 1024.9 965.0
03 12.09 ЮВ 2 20 км н/о +16.6 +7.2 54 +17 +17 1024.4 964.5
04 12.09 СВ 1 20 км н/о +15.7 +6.9 56 +16 +16 1024.7 964.6
05 12.09 Ю 1 20 км н/о +15.3 +6.8 57 +16 +16 1025.1 964.9
06 12.09 СВ 2 20 км н/о +15.6 +7.1 57 +16 +16 1025.3 965.1 +15.3
07 12.09 В 4 20 км н/о +17.7 +7.7 52 +17 +17 1025.0 965.3
08 12.09 ЮВ 2 20 км н/о +19.6 +8.0 47 +21 +21 комфорт 1025.4 966.0
09 12.09 В 4 20 км н/о +22.3 +8.8 42 +24 +24 комфорт 1025.1 966.3
10 12.09 В 5 20 км н/о +24.2 +9.0 38 +25 +25 комфорт 1025.0 966.6
11 12.09 В 5 20 км н/о +26.4 +10.1 36 +27 +27 жарко 1024.1 966.2
12 12.09 ЮВ 4 20 км н/о +25.9 +10.5 38 +27 +27 жарко 1023.6 965.6
13 12.09 В 5 20 км н/о +28.7 +11.3 34 +29 +29 жарко 1022.1 964.7
14 12.09 ЮВ 7 20 км н/о +27.0 +9.4 33 +27 +27 жарко 1022.3 964.6
15 12.09 ЮВ 6 20 км н/о +24.8 +10.3 40 +26 +26 жарко 1023.3 965.1
16 12.09 ЮВ 6 20 км н/о +26.1 +10.7 38 +27 +27 жарко 1022.9 965.0
17 12.09 ЮВ 6 20 км н/о +26.4 +10.9 38 +27 +27 жарко 1022.5 964.7
18 12.09 В 3 20 км н/о +26.0 +10.6 38 +27 +27 жарко 1022.0 964.1 +29.0
19 12.09 В 2 20 км н/о +24.5 +10.7 42 +26 +26 жарко 1023.1 964.9
20 12.09 В 2 20 км н/о +24.1 +11.1 44 +25 +25 комфорт 1023.6 965.3
21 12.09 ЮВ 3 20 км н/о +23.8 +11.1 45 +25 +25 комфорт 1024.0 965.6
22 12.09 ЮВ 4 20 км н/о +23.2 +10.6 45 +25 +25 комфорт 1024.4 965.8
23 12.09 В 4 20 км н/о +23.0 +9.4 42 +25 +25 комфорт 1024.9 966.3
00 13.09 ЮВ 5 20 км н/о +21.6 +8.5 43 +23 +23 комфорт 1025.0 966.1
01 13.09 В 3 20 км н/о +20.2 +6.9 42 +22 +22 комфорт 1024.8 965.6
02 13.09 В 3 20 км н/о +19.4 +8.1 48 +20 +20 1024.8 965.4
03 13.09 СВ 3 20 км н/о +19.2 +8.5 50 +20 +20 1024.3 964.9
04 13.09 В 3 20 км н/о +18.6 +8.5 52 +19 +19 1024.3 964.8
05 13.09 В 3 20 км н/о +17.8 +8.4 54 +18 +18 1023.5 963.9
06 13.09 В 2 20 км н/о +18.0 +8.5 54 +19 +19 1023.2 963.7 +17.7
07 13.09 Ю 2 20 км н/о +17.3 +9.2 59 +18 +18 1024.0 964.3
08 13.09 ЮВ 2 20 км н/о +18.1 +9.4 57 +19 +19 1023.8 964.3
09 13.09 ЮВ 2 20 км н/о +19.4 +9.0 51 +21 +21 комфорт 1023.4 964.1
10 13.09 В 5 20 км н/о +20.9 +9.2 47 +23 +23 комфорт 1023.0 964.1
11 13.09 СВ 4 13 км слаб. дождь н/о +19.5 +12.7 65 +21 +21 комфорт 1023.9 964.7 0.2
12 13.09 В 8 20 км в посл. час дождь н/о +21.3 +12.2 56 +23 +23 комфорт 1023.8 964.9 0.4
13 13.09 В 6 20 км в посл. час дождь н/о +18.0 +14.7 81 +18 +18 1023.7 964.3 0.4
14 13.09 СВ 7 20 км н/о +18.7 +14.2 75 +19 +19 1023.8 964.5
15 13.09 В 6 20 км н/о +20.6 +13.8 65 +23 +23 комфорт 1022.8 963.9 0.4
16 13.09 В 8 20 км н/о +20.6 +13.1 62 +23 +23 комфорт 1022.3 963.4
17 13.09 В 6 17 км в посл. час дождь н/о +19.2 +14.2 73 +20 +20 1022.6 963.5 0.0
18 13.09 В 6 11 км слаб. дождь н/о +18.8 +14.9 78 +19 +19 1022.1 962.9 +21.8 0.4
19 13.09 В 4 20 км н/о +17.8 +14.9 83 +18 +18 1022.9 963.5
20 13.09 В 2 20 км н/о +18.0 +15.1 83 +19 +19 1023.1 963.7
21 13.09 В 2 20 км н/о +18.2 +15.6 85 +19 +19 1023.7 964.3
22 13.09 В 2 20 км н/о +18.4 +15.5 83 +19 +19 1023.3 964.0
23 13.09 В 2 20 км н/о +18.7 +15.6 82 +20 +20 1023.4 964.1
00 14.09 В 5 20 км н/о +18.7 +15.4 81 +19 +19 1022.7 963.5
01 14.09 В 4 20 км н/о +18.2 +15.1 82 +18 +18 1023.0 963.7
02 14.09 СВ 3 20 км н/о +17.8 +14.3 80 +18 +18 1022.7 963.3
03 14.09 СВ 3 20 км н/о +17.5 +14.4 82 +18 +18 1022.4 962.9
04 14.09 ЮВ 2 18 км н/о +16.2 +13.9 86 +17 +17 1021.8 962.1
05 14.09 В 2 17 км н/о +15.7 +14.1 90 +16 +16 1022.3 962.5
06 14.09 Ю 1 20 км н/о +15.6 +14.0 90 +17 +17 1022.5 962.6 +15.6
07 14.09 ЮВ 2 20 км н/о +15.7 +14.1 90 +16 +16 1022.6 962.8
08 14.09 В 2 20 км н/о +16.4 +14.2 87 +16 +16 1023.0 963.3
09 14.09 В 4 20 км н/о +17.9 +13.8 77 +18 +18 1022.8 963.4
10 14.09 В 5 13 км слаб. дождь н/о +17.2 +14.7 85 +17 +17 1022.8 963.3 0.4
11 14.09 В 6 20 км слаб. морось н/о +17.3 +15.1 87 +17 +17 1023.0 963.5 0.4
12 14.09 В 3 20 км в посл. час морось {дождь} н/о +18.8 +15.5 81 +20 +20 1021.9 962.7 0.8
13 14.09 В 4 7000 м дождь н/о +18.0 +16.0 88 +18 +18 1022.2 962.9 1
14 14.09 В 4 11 км дождь н/о +16.8 +15.8 94 +16 +16 1021.1 961.6 5
15 14.09 В 4 20 км в посл. час дождь н/о +18.1 +16.3 89 +18 +18 1020.8 961.6 6
16 14.09 СВ 2 20 км в посл. час дождь н/о +18.0 +15.8 87 +19 +19 1020.5 961.3 0.2
17 14.09 С 3 16 км слаб. морось с дождем н/о +16.9 +15.9 94 +17 +17 1020.9 961.4 4
18 14.09 СВ 3 н/о дождь {снег} н/о +17.1 +16.1 94 +17 +17 1021.2 961.8 +19.8 5
19 14.09 В 3 18 км в посл. час морось н/о +16.8 +15.8 94 +17 +17 1021.0 961.5 0.2
20 14.09 В 2 17 км н/о +16.7 +16.1 96 +17 +17 1021.4 961.9
21 14.09 В 2 17 км н/о +16.4 +15.8 96 +17 +17 1021.4 961.8 0.2
22 14.09 СВ 1 15 км н/о +16.0 +15.7 98 +17 +17 1021.4 961.7
23 14.09 В 1 13 км н/о +16.2 +15.7 97 +17 +17 1020.8 961.2
00 15.09 Ю 1 8000 м дымка н/о +16.2 +15.9 98 +17 +17 1020.6 961.0
01 15.09 ЮЗ 2 6000 м н/о +16.4 +16.2 99 +17 +17 1020.5 961.0
02 15.09 ЮВ 3 1900 м дождь н/о +16.4 +16.2 99 +16 +16 1020.1 960.6 4
03 15.09 В 7 16 км слаб. дождь н/о +16.1 +15.5 96 +15 +15 1019.2 959.7 6
04 15.09 В 4 20 км в посл. час морось н/о +16.1 +15.6 97 +15 +15 1018.9 959.4 0.0
05 15.09 В 1 20 км н/о +16.2 +15.7 97 +18 +18 1019.0 959.5
06 15.09 СВ 1 16 км в посл. час дождь н/о +16.0 +15.8 99 +17 +17 1019.5 959.9 +15.9 0.0
07 15.09 З 2 10 км слаб. морось н/о +16.6 +16.3 98 +17 +17 1019.3 959.9 0.2
08 15.09 В 4 20 км н/о +17.5 +16.9 96 +17 +17 1019.2 960.0
09 15.09 В 2 20 км н/о +19.0 +17.3 90 +21 +21 комфорт 1019.5 960.6 0.2
10 15.09 В 2 19 км н/о +19.2 +17.3 89 +22 +22 комфорт 1019.4 960.5
11 15.09 ЮВ 2 16 км в посл. час дождь н/о +20.3 +18.6 90 +25 +25 комфорт 1019.2 960.6 0.6
12 15.09 ЮВ 2 17 км слаб. морось {дождь} н/о +22.2 +19.0 82 +28 +28 душно 1018.4 960.2 0.6
13 15.09 Ю 2 20 км н/о +25.2 +18.2 65 +30 +30 душно 1016.9 959.3
14 15.09 ЮВ 2 20 км н/о +26.4 +16.3 54 +30 +30 душно 1015.9 958.6
15 15.09 С 2 20 км н/о +26.4 +15.7 52 +30 +30 душно 1015.7 958.4
16 15.09 В 4 20 км н/о +24.5 +17.0 63 +28 +28 душно 1016.0 958.3
17 15.09 СВ 4 20 км н/о +23.6 +17.3 68 +27 +27 жарко 1016.3 958.4
18 15.09 В 5 20 км дымка н/о +21.6 +16.8 74 +26 +26 душно 1016.9 958.6 +26.8
19 15.09 В 4 20 км н/о +20.3 +17.1 82 +24 +24 комфорт 1017.8 959.2
20 15.09 В 3 20 км н/о +19.4 +17.0 86 +22 +22 комфорт 1018.2 959.4
21 15.09 В 3 20 км н/о +19.2 +17.5 90 +21 +21 комфорт 1018.5 959.7
22 15.09 СВ 3 19 км н/о +18.9 +17.2 90 +21 +21 комфорт 1018.7 959.8
23 15.09 СВ 1 20 км н/о +18.7 +17.2 91 +21 +21 комфорт 1018.8 959.9
00 16.09 ЮВ 2 20 км н/о +18.3 +16.6 90 +20 +20 1018.9 959.9
01 16.09 СВ 1 16 км н/о +17.7 +16.9 95 +19 +19 1018.9 959.7
02 16.09 В 2 20 км н/о +18.0 +16.5 91 +19 +19 1018.4 959.3
03 16.09 ЮВ 2 19 км н/о +18.0 +16.5 91 +19 +19 1018.2 959.1
04 16.09 Ю 1 16 км н/о +17.8 +16.8 94 +19 +19 1018.1 959.0
05 16.09 В 2 14 км н/о +17.6 +16.8 95 +18 +18 1018.2 959.1
06 16.09 ЮВ 1 16 км н/о +17.5 +16.7 95 +19 +19 1018.6 959.4 +17.5
07 16.09 В 2 19 км н/о +17.9 +16.9 94 +18 +18 1018.9 959.8
08 16.09 ЮВ 3 19 км н/о +18.9 +17.2 90 +20 +20 1019.0 960.1
09 16.09 ЮВ 3 19 км н/о +20.8 +18.0 84 +25 +25 комфорт 1018.8 960.3
10 16.09 ЮВ 3 19 км н/о +23.2 +18.1 73 +29 +29 душно 1018.3 960.3
11 16.09 В 2 20 км н/о +24.3 +17.8 67 +28 +28 душно 1017.9 960.1
12 16.09 ЮВ 3 20 км н/о +25.9 +17.5 60 +30 +30 душно 1017.2 959.7
13 16.09 ЮВ 4 20 км н/о +27.5 +15.5 48 +30 +30 жарко 1016.3 959.1
14 16.09 ЮВ 2 20 км слаб. дождь н/о +25.7 +16.8 58 +29 +29 душно 1016.2 958.7 0.0
15 16.09 Ю 1 20 км н/о +27.0 +14.4 46 +29 +29 жарко 1015.6 958.3 0.0
16 16.09 ЮЗ 2 20 км н/о +26.7 +13.8 45 +29 +29 жарко 1015.4 958.1
17 16.09 СВ 2 20 км н/о +27.3 +13.6 43 +29 +29 жарко 1015.2 958.0
18 16.09 СВ 2 20 км дымка н/о +25.8 +14.0 48 +28 +28 жарко 1015.6 958.1 +27.6
19 16.09 СВ 4 20 км н/о +23.2 +15.8 63 +28 +28 душно 1016.4 958.4
20 16.09 ЮВ 1 20 км н/о +22.3 +16.1 68 +26 +26 жарко 1016.9 958.7
21 16.09 В 2 20 км н/о +21.7 +16.2 71 +25 +25 комфорт 1017.4 959.1
22 16.09 В 2 20 км н/о +20.8 +16.0 74 +25 +25 комфорт 1017.5 959.0
23 16.09 ЮВ 1 20 км н/о +20.4 +16.0 76 +25 +25 комфорт 1017.5 958.9
00 17.09 В 2 19 км н/о +19.9 +16.5 81 +23 +23 комфорт 1017.5 958.8
01 17.09 В 2 15 км н/о +19.7 +16.7 83 +23 +23 комфорт 1017.4 958.7
02 17.09 Ю 1 16 км н/о +19.2 +16.4 84 +22 +22 комфорт 1017.1 958.3
03 17.09 Ю 1 10 км н/о +18.4 +16.4 88 +21 +21 комфорт 1017.0 958.1
04 17.09 В 2 9000 м н/о +18.0 +16.3 90 +19 +19 1017.0 958.0
05 17.09 ЮВ 2 9000 м н/о +17.4 +16.3 93 +18 +18 1017.3 958.2
06 17.09 В 2 13 км н/о +17.3 +16.2 93 +18 +18 1017.0 957.9 +17.2
07 17.09 В 1 18 км н/о +18.1 +16.1 88 +19 +19 1017.4 958.4
08 17.09 ЮВ 2 19 км н/о +20.6 +16.4 77 +24 +24 комфорт 1016.9 958.4
09 17.09 В 3 20 км н/о +22.4 +16.4 69 +27 +27 душно 1016.8 958.7
10 17.09 В 2 20 км н/о +25.1 +16.8 60 +29 +29 душно 1016.0 958.4
11 17.09 ЮВ 3 20 км н/о +27.2 +15.9 50 +30 +30 душно 1015.0 957.8

 

Местоположение метеостанции Толедо (Испания): широта 39.88 долгота -4.05 высота над уровнем моря 515 м.

В архиве по умолчанию представлена погода в Толедо за последнюю неделю. Архивные данные за месяц целиком и за предыдущие месяцы, начиная с января 2011 года, Вы можете получить, выбрав интересующий диапазон дат из раскрывающегося списка и нажав кнопку "Ввод!".


*Определитесь, кто Вы:
робот инопланетянин человек

Внимание! Время в таблицах - всемирное. Для получения местного времени необходимо прибавить поправку, которая равна 1 ч.

Смотрите также архив погоды в соседних городах и на ближайших метеорологических станциях:

Погода в Сан-Пабло-де-лос-Монтесе (Испания) (45 км)
Погода в Аранхуэсе (Испания) (48 км)
Погода в Мадрид аэропорту (Испания) (55 км)
Погода в Мадридехосе (Испания) (62 км)
Погода в Робледо-де-Чавеле (Испания) (63 км)
Погода в Сотильо-де-ла-Адраде (Испания) (65 км)
Погода в Мадриде Буэн-Ретиро (Испания) (67 км)
Погода в Мадриде университет (Испания) (69 км)
Погода в Талавера-де-ла-Рейне (Испания) (70 км)
Погода в Мадриде (Испания) (76 км)

Пояснения к столбцам:

Ветер - указаны скорость ветра в м/с - средняя за 10 мин, порывы в срок и между сроками (в фигурных скобках) и направление, откуда дует ветер: С - северный, СВ - северо-восточный, В - восточный, ЮВ - юго-восточный, Ю - южный, ЮЗ - юго-западный, З - западный, СЗ - северо-западный.
Видимость - горизонтальная дальность видимости в метрах или километрах. При видимости от 1 до 10 км при отсутствии осадков обычно наблюдается дымка, при ухудшении видимости до 1 км и менее - туман. В сухую погоду видимость может ухудшаться дымом, пылью или мглою.
Явления - указаны атмосферные явления, наблюдавшиеся в срок или в последний час перед сроком; фигурными скобками обозначены явления, наблюдавшиеся между сроками (за 1-3 часа до срока); квадратными скобками обозначены град или гололедные отложения с указанием их диаметра в мм.
Облачность - указаны через наклонную черту общая и нижняя облачность в баллах и высота нижней границы облаков в метрах; квадратными скобками обозначены формы облаков: Ci - перистые, Cs - перисто-слоистые, Cc - перисто-кучевые, Ac - высококучевые, As - высокослоистые, Sc - слоисто-кучевые, Ns - слоисто-дождевые, Cu - кучевые, Cb - кучево-дождевые. Подробнее классификацию облаков см. в Атласе облаков (PDF).
T - Температура воздуха - температура, измеренная на высоте 2 м над землей.
Td - Температура точки росы - температура, при понижении до которой содержащийся в воздухе водяной пар достигнет насыщения.
f - Относительная влажность воздуха - влажноcть воздуха, измеренная на высоте 2 м над землей.
Te - Эффективная температура - температура, которую ощущает одетый по сезону человек в тени. Характеристика душности погоды. При расчете учитывается влияние влажности воздуха и скорости ветра на теплоощущения человека.
Tes - Эффективная температура на солнце - температура, которую ощущает человек, с поправкой на солнечный нагрев. Характеристика знойности погоды. Зависит от высоты солнца над горизонтом, облачности и скорости ветра. Ночью, в пасмурную погоду, а также при ветре 12 м/с и более поправка равна нулю.
P - Атмосферное давление - приведенное к уровню моря атмосферное давление.
Po - Атмосферное давление - измеренное на уровне метеостанции атмосферное давление.
Tmin - Минимальная температура - минимум температуры воздуха на высоте 2 м над землей.
Tmax - Максимальная температура - максимум температуры воздуха на высоте 2 м над землей.
R - Количество осадков - Количество выпавших осадков за период времени, мм. При наведении курсора мыши на число - период времени, за который выпало указанное количество осадков.
R24 - Количество осадков - Количество выпавших осадков за 24 часа, мм.
S - Снежный покров - Высота снежного покрова, см. При наведении курсора мыши на число - состояние снежного покрова и степень покрытия местности в баллах.